DW4032 Weather Reports


time (UTC)temp
F
wind
direction
speed
knots
gust
knots
rain 1hr
in
rain 24hr
in
rain mn
in
humidity
%
barometer
mb
20260507104534 59 54 1.7 7.0 0.00 0.00 0.00 62 1016.2
20260507103033 58 39 1.7 5.2 0.00 0.00 0.00 66 1016.2
20260507101541 57 15 2.6 5.2 0.00 0.00 0.00 64 1016.3
20260507100036 59 40 1.7 6.1 0.00 0.00 0.00 62 1016.2
20260507094529 58 62 1.7 4.3 0.00 0.00 0.00 60 1016.1
20260507093028 58 62 1.7 3.5 0.00 0.00 0.00 59 1016.1
20260507091524 57 64 1.7 8.7 0.00 0.00 0.00 63 1015.9
20260507090031 56 73 1.7 4.3 0.00 0.00 0.00 66 1015.9
20260507084531 55 79 2.6 4.3 0.00 0.00 0.00 67 1015.8
20260507083017 55 80 1.7 5.2 0.00 0.00 0.00 69 1015.8
20260507081515 54 77 0.9 3.5 0.00 0.00 0.00 69 1015.9
20260507080012 54 77 0.9 3.5 0.00 0.00 0.00 71 1015.8
20260507074523 53 80 0.0 6.1 0.00 0.00 0.00 72 1015.8
20260507073006 52 55 0.9 4.3 0.00 0.00 0.00 76 1015.7
20260507071504 52 56 3.5 6.1 0.00 0.00 0.00 77 1015.7
20260507070009 51 39 2.6 5.2 0.00 0.00 0.00 77 1015.6
20260507064600 50 55 4.3 7.0 0.00 0.00 0.00 79 1015.6
20260507063059 50 43 0.9 4.3 0.00 0.00 0.00 80 1015.6
20260507061558 49 60 0.9 3.5 0.00 0.00 0.00 80 1015.6
20260507060106 48 328 0.0 3.5 0.00 0.00 0.00 82 1015.5
20260507054558 47 5 0.0 1.7 0.00 0.00 0.00 84 1015.4
20260507053055 47 5 0.0 2.6 0.00 0.00 0.00 86 1015.2
20260507051552 46 355 0.0 0.0 0.00 0.00 0.00 87 1015.1
20260507050050 45 355 0.0 0.0 0.00 0.00 0.00 88 1014.9
20260507044549 45 355 0.0 0.0 0.00 0.00 0.00 89 1014.8
20260507043047 44 355 0.0 0.0 0.00 0.00 0.00 89 1014.7
20260507041547 45 355 0.0 0.0 0.00 0.00 0.00 88 1014.6
20260507040043 45 355 0.0 0.9 0.00 0.00 0.00 88 1014.4
20260507034554 45 355 0.0 1.7 0.00 0.00 0.00 88 1014.5
20260507033045 45 355 0.0 0.9 0.00 0.00 0.00 89 1014.4
20260507031540 45 355 0.0 0.9 0.00 0.00 0.00 89 1014.3
20260507030040 45 355 0.0 0.9 0.00 0.00 0.00 88 1014.2
20260507024551 45 355 0.0 0.9 0.00 0.00 0.00 89 1014.2
20260507023037 45 355 0.0 0.9 0.00 0.00 0.00 88 1014.1
20260507021545 45 355 0.0 0.9 0.00 0.00 0.00 88 1014.0
20260507020034 46 355 0.0 0.9 0.00 0.00 0.00 88 1013.9
20260507014540 46 355 0.0 1.7 0.00 0.00 0.00 87 1013.8
20260507013033 46 347 0.0 1.7 0.00 0.00 0.00 87 1013.7
20260507011539 46 344 0.0 1.7 0.00 0.00 0.00 87 1013.7
20260507010030 46 346 0.0 0.9 0.00 0.00 0.00 87 1013.6
20260507004527 47 346 0.0 1.7 0.00 0.00 0.00 87 1013.6
20260507003026 47 42 0.0 2.6 0.00 0.00 0.00 87 1013.7
20260507001526 47 346 0.0 2.6 0.00 0.00 0.00 86 1013.5
20260507000023 48 344 0.0 2.6 0.00 0.00 0.00 86 1013.5
20260506234520 48 26 0.0 1.7 0.00 0.00 0.00 85 1013.4
20260506233018 48 14 0.0 3.5 0.00 0.00 0.00 85 1013.3
20260506231516 48 35 0.0 3.5 0.00 0.00 0.00 84 1013.3
20260506230016 49 33 0.0 2.6 0.00 0.00 0.00 82 1013.2
20260506224514 49 26 0.9 4.3 0.00 0.00 0.00 81 1013.2
20260506223010 49 9 0.0 3.5 0.00 0.00 0.00 80 1013.1
20260506221508 50 344 0.0 3.5 0.00 0.00 0.00 79 1013.0
20260506220007 50 355 1.7 3.5 0.00 0.00 0.00 77 1013.0
20260506214505 51 36 0.9 2.6 0.00 0.00 0.00 76 1012.8
20260506213004 51 30 0.9 6.1 0.00 0.00 0.00 75 1012.7
20260506211503 51 342 1.7 4.3 0.00 0.00 0.00 74 1012.7
20260506210001 52 11 0.0 1.7 0.00 0.00 0.00 72 1012.6
20260506204502 52 60 0.0 6.1 0.00 0.00 0.00 72 1012.5
20260506203059 52 15 1.7 4.3 0.00 0.00 0.00 71 1012.4
20260506201600 53 33 0.9 4.3 0.00 0.00 0.00 70 1012.3
20260506200058 54 42 0.9 5.2 0.00 0.00 0.00 70 1012.1
20260506194556 54 44 1.7 7.0 0.00 0.00 0.00 69 1012.0
20260506193053 55 32 2.6 7.0 0.00 0.00 0.00 70 1011.8
20260506191553 55 74 0.9 7.8 0.00 0.00 0.00 70 1011.6
20260506190051 55 33 4.3 11.3 0.00 0.00 0.00 69 1011.4
20260506184549 55 49 2.6 8.7 0.00 0.00 0.00 68 1011.2
20260506183047 55 43 1.7 10.4 0.00 0.00 0.00 68 1011.0
20260506181546 56 5 3.5 8.7 0.00 0.00 0.00 65 1010.8
20260506180045 56 32 3.5 7.0 0.00 0.00 0.00 62 1010.6
20260506174554 56 44 1.7 6.1 0.00 0.00 0.00 60 1010.5
20260506173052 56 60 2.6 7.0 0.00 0.00 0.00 58 1010.3
20260506171542 56 41 0.9 7.8 0.00 0.00 0.00 58 1010.2
20260506170046 56 43 1.7 8.7 0.00 0.00 0.00 58 1010.1
20260506164541 56 36 4.3 9.6 0.00 0.00 0.00 66 1010.0
20260506163048 56 336 1.7 7.0 0.00 0.00 0.00 72 1010.0
20260506161541 56 341 2.6 5.2 0.00 0.00 0.00 72 1010.0
20260506160040 56 360 1.7 9.6 0.00 0.00 0.00 71 1009.9
20260506154541 57 355 1.7 5.2 0.00 0.00 0.00 68 1009.9
20260506153044 58 55 2.6 7.0 0.00 0.00 0.00 55 1009.8
20260506151538 58 26 1.7 4.3 0.00 0.00 0.00 56 1009.8
20260506150048 59 342 3.5 10.4 0.00 0.00 0.00 60 1009.8
20260506144558 60 64 7.0 13.9 0.00 0.00 0.00 54 1009.7
20260506143048 61 34 5.2 13.9 0.00 0.00 0.00 53 1009.7
20260506141537 61 49 4.3 13.9 0.00 0.00 0.00 52 1009.7
20260506140053 61 44 2.6 10.4 0.00 0.00 0.00 53 1009.7
20260506134535 59 47 2.6 10.4 0.00 0.00 0.00 55 1009.6
20260506133029 58 332 2.6 8.7 0.00 0.00 0.00 54 1009.6
20260506131538 57 355 1.7 6.1 0.00 0.00 0.00 71 1009.5
20260506130029 57 324 2.6 6.1 0.00 0.00 0.00 73 1009.6
20260506124528 57 5 1.7 7.8 0.00 0.00 0.00 70 1009.5
20260506123037 58 20 1.7 4.3 0.00 0.00 0.00 64 1009.4
20260506121527 58 12 3.5 7.8 0.00 0.00 0.00 60 1009.4
20260506120031 58 44 7.0 13.0 0.00 0.00 0.00 59 1009.3
20260506114523 57 17 2.6 8.7 0.00 0.00 0.00 63 1009.3
20260506113021 56 27 0.9 4.3 0.00 0.00 0.00 72 1009.3
20260506111521 55 15 2.6 6.1 0.00 0.00 0.00 76 1009.4
20260506110028 56 360 3.5 8.7 0.00 0.00 0.00 75 1009.4